Regional Weather Roundup
Issued by NWS

Home | Current Version | Previous Version | Text Only | Print | Product List | Glossary Off
Versions: 1 2 3 4 5 6 7 8 9 10 11 12 13 14 15 16 17 18 19 20 21 22 23 24 25 26 27 28 29 30 31 32 33 34 35 36 37 38 39 40 41 42 43 44 45 46 47 48 49 50

000
ASUS45 KPSR 290610
RWRAZ

ARIZONA HOURLY REGIONAL WEATHER ROUNDUP
NATIONAL WEATHER SERVICE PHOENIX AZ
1100 PM MST TUE JUL 28 2015

NOTE: FAIR INDICATES FEW OR NO CLOUDS BELOW 12,000 FEET WITH NO
SIGNIFICANT WEATHER AND/OR OBSTRUCTIONS TO VISIBILITY.

AZZ001>003-036-290700-
NORTHWEST ARIZONA

CITY           SKY/WX    TMP DP  RH WIND       PRES   REMARKS
BULLHEAD CITY  CLEAR     93  43  17 CALM      29.81S
KINGMAN        CLEAR     75  35  23 NE3       30.04R
6HR MIN TEMP:  72; 6HR MAX TEMP:  97;

$$

AZZ004>008-015-016-018-290700-
NORTH CENTRAL ARIZONA

CITY           SKY/WX    TMP DP  RH WIND       PRES   REMARKS
GRAND CANYON   PTCLDY    56  25  30 CALM      30.28R
6HR MIN TEMP:  53; 6HR MAX TEMP:  86;

WILLIAMS       MOCLDY    68  27  21 SW5       30.36S
PRESCOTT       MOCLDY    78  37  22 SW5       30.17R
6HR MIN TEMP:  76; 6HR MAX TEMP:  90;

FLAGSTAFF      MOCLDY    63  39  41 CALM      30.33R
6HR MIN TEMP:  63; 6HR MAX TEMP:  81;

PAYSON         CLOUDY    73  52  46 CALM      30.23R
PAGE           CLEAR     85  18   8 W7        30.07R
6HR MIN TEMP:  84; 6HR MAX TEMP:  96;

$$

AZZ009>014-017-290700-
NORTHEAST ARIZONA

CITY           SKY/WX    TMP DP  RH WIND       PRES   REMARKS
WINSLOW        MOCLDY    79  51  37 SW13      30.13S
6HR MIN TEMP:  79; 6HR MAX TEMP:  94;

SAINT JOHNS    CLOUDY    73  50  44 SE8       30.21R
6HR MIN TEMP:  73; 6HR MAX TEMP:  81; 6HR PCP: TRACE;

WINDOW ROCK    MOCLDY    70  47  43 S5        30.30R
6HR MIN TEMP:  70; 6HR MAX TEMP:  85;

SHOW LOW       CLOUDY    64  50  59 S12       30.29S
$$

AZZ023-290700-
GREATER PHOENIX AREA

CITY           SKY/WX    TMP DP  RH WIND       PRES   REMARKS
PHOENIX        CLOUDY    90  62  39 S20G30    29.88R
6HR MIN TEMP:  90; 6HR MAX TEMP: 104;

DEER VALLEY    CLOUDY    89  60  37 SE23G33   29.90R
6HR MIN TEMP:  89; 6HR MAX TEMP: 102;

SCOTTSDALE     CLOUDY    90  60  36 SE10G16   29.95R
6HR MIN TEMP:  90; 6HR MAX TEMP: 103;

MESA-GATEWAY   MOCLDY    86  61  42 SE12      29.97R
$$

AZZ027-028-290700-
SOUTHWEST MARICOPA COUNTY AND PINAL COUNTY

CITY           SKY/WX    TMP DP  RH WIND       PRES   REMARKS
CASA GRANDE    CLOUDY    88  59  37 SE9       29.93S
6HR MIN TEMP:  86; 6HR MAX TEMP: 100;

$$

AZZ503-504-507>509-290700-
SOUTHEAST ARIZONA

CITY           SKY/WX    TMP DP  RH WIND       PRES   REMARKS
TUCSON         CLOUDY    74  64  71 E8        30.06R
6HR MIN TEMP:  72; 6HR MAX TEMP:  77; 6HR PCP:  1.36;

NOGALES        CLOUDY    68  65  90 SE6       30.16S
6HR MIN TEMP:  68; 6HR MAX TEMP:  70; 6HR PCP:  0.18;

DOUGLAS          N/A    N/A N/A N/A MISG      30.15R
SAFFORD        CLOUDY    85  56  37 NW15      30.01S
6HR MIN TEMP:  83; 6HR MAX TEMP:  96;

$$

AZZ020-021-025-026-031-290700-
SOUTHWEST ARIZONA

CITY           SKY/WX    TMP DP  RH WIND       PRES   REMARKS
YUMA           PTCLDY    92  67  43 S13       29.81R
6HR MIN TEMP:  92; 6HR MAX TEMP: 107;

$$

CAZ031-033-041-043-047-048-061-290700-
SOUTHERN CALIFORNIA

CITY           SKY/WX    TMP DP  RH WIND       PRES   REMARKS
DOWNTOWN L.A.  MOCLDY    68  63  84 CALM      29.91R
6HR MIN TEMP:  68; 6HR MAX TEMP:  78;

L.A. AIRPORT   MOCLDY    67  64  90 SW9       29.92R
6HR MIN TEMP:  67; 6HR MAX TEMP:  74;

SAN DIEGO      PTCLDY    70  61  73 SW5       29.93S
6HR MIN TEMP:  68; 6HR MAX TEMP:  74;

BURBANK        CLEAR     71  63  75 E8        29.91R
6HR MIN TEMP:  71; 6HR MAX TEMP:  87;

ONTARIO        CLEAR     71  62  73 W6        29.92R
6HR MIN TEMP:  71; 6HR MAX TEMP:  93;

RIVERSIDE      CLEAR     73  62  68 W3        29.92R
6HR MIN TEMP:  73; 6HR MAX TEMP:  92;

PALM SPRINGS   CLEAR     92  59  33 NW12      29.83R
6HR MIN TEMP:  92; 6HR MAX TEMP: 106;

EL CENTRO NAS  PTCLDY    92  60  34 SE9       29.78R
6HR MIN TEMP:  92; 6HR MAX TEMP: 107;

IMPERIAL       CLEAR     93  60  33 S8        29.76R
6HR MIN TEMP:  93; 6HR MAX TEMP: 107;

BLYTHE         CLEAR    100  59  25 SW12      29.79R HX 100
6HR MIN TEMP: 100; 6HR MAX TEMP: 107;

NEEDLES        CLEAR     98  41  14 W10       29.81S
6HR MIN TEMP:  97; 6HR MAX TEMP: 109;

$$

NVZ020-UTZ003-290700-
SOUTHERN NEVADA-UTAH

CITY           SKY/WX    TMP DP  RH WIND       PRES   REMARKS
LAS VEGAS      CLEAR     93  29  10 SW5       29.88R
6HR MIN TEMP:  93; 6HR MAX TEMP: 103;

SALT LAKE CITY CLEAR     63  30  28 SE7       30.24S
6HR MIN TEMP:  62; 6HR MAX TEMP:  78;

$$

NMZ009-TXZ055-290700-
NEW MEXICO-WEST TEXAS

CITY           SKY/WX    TMP DP  RH WIND       PRES   REMARKS
ALBUQUERQUE    CLOUDY    75  54  47 E15       30.22S
6HR MIN TEMP:  74; 6HR MAX TEMP:  91; 6HR PCP: TRACE;

EL PASO        TSTM      73  65  75 NW13      30.15R
6HR MIN TEMP:  72; 6HR MAX TEMP:  99; 6HR PCP:  0.26;

$$


........................KEY........................
SKY/WX - SKY CONDITION/WEATHER
TMP    - TEMPERATURE IN FAHRENHEIT
DP     - DEW POINT IN FAHRENHEIT
RH     - RELATIVE HUMIDITY IN PERCENT
WIND   - DIRECTION AND SPEED IN MILES PER HOUR (MPH)
VRB    - VARIABLE WIND DIRECTION
PRES   - MEAN SEA LEVEL PRESSURE IN INCHES OF MERCURY
         F - FALLING PRESSURE   R - RISING PRESSURE
         S - STEADY PRESSURE
VSB    - VISIBILITY IN MILES
HX     - HEAT INDEX IN FAHRENHEIT
WCI    - WIND CHILL INDEX IN FAHRENHEIT
TC     - TEMPERATURE IN CELSIUS WHICH IS ALSO KNOWN AS
         TEMPERATURE IN CENTIGRADE
AFB    - AIR FORCE BASE
         LUKE AFB IS LUKE AIR FORCE BASE
         DAVIS-MONTHAN IS DAVIS-MONTHAN AIR FORCE BASE
NAS    - NAVAL AIR STATION
         EL CENTRO NAS IS EL CENTRO NAVAL AIR STATION
N/A    - NOT AVAILABLE



USA.gov is the U.S. government's official web portal to all federal, state and local government web resources and services.